Terminal Aerodrome Forecast
Issued by NWS

Home | Current Version | Previous Version | Text Only | Print | Product List | Glossary On
Versions: 1 2 3 4 5 6 7 8 9 10 11 12 13 14 15 16 17 18 19 20 21 22 23 24
000
FTUS44 KOUN 231138
TAFGAG
TAF
KGAG 231138Z 2312/2412 18010KT P6SM FEW250
     FM231500 20016G24KT P6SM SCT250
     FM232100 19020G28KT P6SM SCT080 BKN250
     FM240200 17014G20KT P6SM FEW120 BKN250=

USA.gov is the U.S. government's official web portal to all federal, state and local government web resources and services.